| time (UTC) | temp F | wind direction | speed knots | gust knots | rain 1hr in | rain 24hr in | rain mn in | humidity % | barometer mb |
| 20260509090007 | 60 | 209 | 0.0 | 4.3 | 0.00 | 0.00 | 0.00 | 75 | 1023.9 |
| 20260509084511 | 60 | 182 | 1.7 | 4.3 | 0.00 | 0.00 | 0.00 | 74 | 1023.8 |
| 20260509083004 | 60 | 207 | 0.9 | 3.5 | 0.00 | 0.00 | 0.00 | 73 | 1023.7 |
| 20260509081502 | 61 | 195 | 1.7 | 6.1 | 0.00 | 0.00 | 0.00 | 73 | 1023.6 |
| 20260509080001 | 61 | 198 | 0.9 | 3.5 | 0.00 | 0.00 | 0.00 | 71 | 1023.4 |
| 20260509074607 | 62 | 197 | 0.9 | 6.1 | 0.00 | 0.00 | 0.00 | 71 | 1023.2 |
| 20260509073103 | 62 | 203 | 0.9 | 5.2 | 0.00 | 0.00 | 0.00 | 70 | 1023.1 |
| 20260509071608 | 63 | 203 | 0.9 | 6.1 | 0.00 | 0.00 | 0.00 | 67 | 1022.8 |
| 20260509070100 | 64 | 193 | 2.6 | 5.2 | 0.00 | 0.00 | 0.00 | 65 | 1022.8 |
| 20260509064617 | 65 | 185 | 1.7 | 5.2 | 0.00 | 0.00 | 0.00 | 62 | 1022.5 |
| 20260509063058 | 67 | 188 | 3.5 | 6.1 | 0.00 | 0.00 | 0.00 | 58 | 1022.4 |
| 20260509061622 | 73 | 187 | 2.6 | 6.1 | 0.00 | 0.00 | 0.00 | 49 | 1022.2 |
| 20260509060057 | 73 | 178 | 2.6 | 5.2 | 0.00 | 0.00 | 0.00 | 49 | 1022.0 |
| 20260509054556 | 74 | 190 | 2.6 | 7.0 | 0.00 | 0.00 | 0.00 | 48 | 1022.0 |
| 20260509053054 | 74 | 167 | 1.7 | 6.1 | 0.00 | 0.00 | 0.00 | 50 | 1021.9 |
| 20260509051552 | 74 | 189 | 2.6 | 7.8 | 0.00 | 0.00 | 0.00 | 49 | 1022.0 |
| 20260509050050 | 74 | 164 | 3.5 | 8.7 | 0.00 | 0.00 | 0.00 | 48 | 1021.8 |
| 20260509044549 | 74 | 172 | 2.6 | 8.7 | 0.00 | 0.00 | 0.00 | 47 | 1021.8 |
| 20260509043056 | 75 | 147 | 4.3 | 7.8 | 0.00 | 0.00 | 0.00 | 47 | 1021.8 |
| 20260509041548 | 74 | 184 | 3.5 | 10.4 | 0.00 | 0.00 | 0.00 | 49 | 1021.9 |
| 20260509040047 | 74 | 204 | 3.5 | 8.7 | 0.00 | 0.00 | 0.00 | 47 | 1021.8 |
| 20260509034553 | 74 | 194 | 2.6 | 8.7 | 0.00 | 0.00 | 0.00 | 47 | 1021.7 |
| 20260509033051 | 73 | 155 | 4.3 | 9.6 | 0.00 | 0.00 | 0.00 | 47 | 1021.7 |
| 20260509031543 | 75 | 178 | 4.3 | 7.8 | 0.00 | 0.00 | 0.00 | 46 | 1022.0 |
| 20260509030043 | 74 | 193 | 5.2 | 13.0 | 0.00 | 0.00 | 0.00 | 47 | 1022.2 |
| 20260509024542 | 74 | 183 | 3.5 | 7.8 | 0.00 | 0.00 | 0.00 | 46 | 1022.4 |
| 20260509023039 | 75 | 209 | 3.5 | 9.6 | 0.00 | 0.00 | 0.00 | 46 | 1022.6 |
| 20260509021540 | 76 | 196 | 3.5 | 8.7 | 0.00 | 0.00 | 0.00 | 46 | 1022.7 |
| 20260509020036 | 77 | 207 | 3.5 | 7.8 | 0.00 | 0.00 | 0.00 | 43 | 1022.8 |
| 20260509014535 | 77 | 229 | 1.7 | 7.8 | 0.00 | 0.00 | 0.00 | 40 | 1023.0 |
| 20260509013033 | 76 | 201 | 3.5 | 7.0 | 0.00 | 0.00 | 0.00 | 42 | 1023.1 |
| 20260509011530 | 75 | 300 | 4.3 | 9.6 | 0.00 | 0.00 | 0.00 | 44 | 1023.1 |
| 20260509010033 | 74 | 255 | 1.7 | 6.1 | 0.00 | 0.00 | 0.00 | 44 | 1023.0 |
| 20260509004533 | 72 | 286 | 1.7 | 7.8 | 0.00 | 0.00 | 0.00 | 46 | 1023.2 |
| 20260509003022 | 71 | 281 | 5.2 | 9.6 | 0.00 | 0.00 | 0.00 | 47 | 1023.3 |
| 20260509001524 | 71 | 295 | 3.5 | 8.7 | 0.00 | 0.00 | 0.00 | 47 | 1023.5 |
| 20260509000016 | 69 | 233 | 3.5 | 10.4 | 0.00 | 0.00 | 0.00 | 50 | 1023.4 |
| 20260508234513 | 68 | 301 | 4.3 | 10.4 | 0.00 | 0.00 | 0.00 | 51 | 1023.5 |
| 20260508233010 | 67 | 355 | 6.1 | 12.2 | 0.00 | 0.00 | 0.00 | 52 | 1023.3 |
| 20260508231508 | 66 | 324 | 2.6 | 9.6 | 0.00 | 0.00 | 0.00 | 55 | 1023.3 |
| 20260508230004 | 65 | 323 | 5.2 | 11.3 | 0.00 | 0.00 | 0.00 | 57 | 1023.3 |
| 20260508224600 | 64 | 300 | 5.2 | 13.0 | 0.00 | 0.00 | 0.00 | 58 | 1023.4 |
| 20260508223056 | 62 | 274 | 4.3 | 11.3 | 0.00 | 0.00 | 0.00 | 62 | 1023.2 |
| 20260508221552 | 59 | 309 | 6.1 | 12.2 | 0.00 | 0.00 | 0.00 | 67 | 1023.1 |
| 20260508220049 | 57 | 304 | 6.1 | 13.9 | 0.00 | 0.00 | 0.00 | 71 | 1023.1 |
| 20260508214600 | 56 | 304 | 5.2 | 11.3 | 0.00 | 0.00 | 0.00 | 72 | 1023.0 |
| 20260508213043 | 55 | 314 | 5.2 | 10.4 | 0.00 | 0.00 | 0.00 | 73 | 1022.7 |
| 20260508211541 | 55 | 301 | 4.3 | 11.3 | 0.00 | 0.00 | 0.00 | 73 | 1022.5 |
| 20260508210041 | 55 | 303 | 4.3 | 9.6 | 0.00 | 0.00 | 0.00 | 73 | 1022.4 |
| 20260508204537 | 55 | 330 | 6.1 | 9.6 | 0.00 | 0.00 | 0.00 | 72 | 1022.2 |
| 20260508203033 | 56 | 291 | 5.2 | 10.4 | 0.00 | 0.00 | 0.00 | 71 | 1022.0 |
| 20260508201532 | 57 | 300 | 6.1 | 10.4 | 0.00 | 0.00 | 0.00 | 70 | 1021.7 |
| 20260508200039 | 57 | 294 | 5.2 | 10.4 | 0.00 | 0.00 | 0.00 | 69 | 1021.8 |
| 20260508194527 | 57 | 297 | 3.5 | 7.8 | 0.00 | 0.00 | 0.00 | 69 | 1021.5 |
| 20260508193025 | 57 | 307 | 5.2 | 9.6 | 0.00 | 0.00 | 0.00 | 69 | 1021.3 |
| 20260508191524 | 57 | 299 | 6.1 | 9.6 | 0.00 | 0.00 | 0.00 | 69 | 1021.0 |
| 20260508190044 | 57 | 324 | 3.5 | 10.4 | 0.00 | 0.00 | 0.00 | 69 | 1021.0 |
| 20260508184530 | 57 | 282 | 3.5 | 9.6 | 0.00 | 0.00 | 0.00 | 69 | 1021.0 |
| 20260508183031 | 57 | 294 | 4.3 | 9.6 | 0.00 | 0.00 | 0.00 | 69 | 1020.8 |
| 20260508181520 | 56 | 284 | 4.3 | 9.6 | 0.00 | 0.00 | 0.00 | 69 | 1020.6 |
| 20260508180018 | 56 | 301 | 5.2 | 11.3 | 0.00 | 0.00 | 0.00 | 69 | 1020.4 |
| 20260508174516 | 56 | 299 | 5.2 | 10.4 | 0.00 | 0.00 | 0.00 | 68 | 1020.5 |
| 20260508173014 | 57 | 298 | 4.3 | 9.6 | 0.00 | 0.00 | 0.00 | 68 | 1020.5 |
| 20260508171517 | 57 | 315 | 4.3 | 10.4 | 0.00 | 0.00 | 0.00 | 68 | 1020.4 |
| 20260508170013 | 57 | 284 | 5.2 | 14.8 | 0.00 | 0.00 | 0.00 | 68 | 1020.5 |
| 20260508164520 | 56 | 316 | 7.0 | 12.2 | 0.00 | 0.00 | 0.00 | 68 | 1020.5 |
| 20260508163014 | 56 | 326 | 6.1 | 11.3 | 0.00 | 0.00 | 0.00 | 68 | 1020.6 |
| 20260508161510 | 56 | 314 | 5.2 | 10.4 | 0.00 | 0.00 | 0.00 | 68 | 1020.5 |
| 20260508160005 | 56 | 310 | 4.3 | 12.2 | 0.00 | 0.00 | 0.00 | 68 | 1020.4 |
| 20260508154504 | 56 | 299 | 5.2 | 12.2 | 0.00 | 0.00 | 0.00 | 68 | 1020.4 |
| 20260508153002 | 56 | 272 | 4.3 | 9.6 | 0.00 | 0.00 | 0.00 | 68 | 1020.5 |
| 20260508151602 | 56 | 336 | 4.3 | 11.3 | 0.00 | 0.00 | 0.00 | 67 | 1020.5 |
| 20260508150057 | 57 | 284 | 5.2 | 9.6 | 0.00 | 0.00 | 0.00 | 66 | 1020.5 |
| 20260508144655 | 57 | 320 | 4.3 | 10.4 | 0.00 | 0.00 | 0.00 | 66 | 1020.4 |
| 20260508143058 | 57 | 297 | 7.0 | 10.4 | 0.00 | 0.00 | 0.00 | 66 | 1020.3 |
| 20260508141603 | 57 | 302 | 4.3 | 9.6 | 0.00 | 0.00 | 0.00 | 66 | 1020.5 |
| 20260508140048 | 57 | 293 | 5.2 | 11.3 | 0.00 | 0.00 | 0.00 | 65 | 1020.5 |
| 20260508134550 | 58 | 294 | 7.0 | 13.0 | 0.00 | 0.00 | 0.00 | 64 | 1020.3 |
| 20260508133046 | 58 | 311 | 7.0 | 12.2 | 0.00 | 0.00 | 0.00 | 63 | 1020.1 |
| 20260508131557 | 58 | 309 | 7.0 | 13.0 | 0.00 | 0.00 | 0.00 | 63 | 1020.1 |
| 20260508130044 | 58 | 314 | 5.2 | 11.3 | 0.00 | 0.00 | 0.00 | 64 | 1020.3 |
| 20260508124543 | 58 | 319 | 2.6 | 8.7 | 0.00 | 0.00 | 0.00 | 63 | 1020.3 |
| 20260508123043 | 58 | 325 | 4.3 | 11.3 | 0.00 | 0.00 | 0.00 | 63 | 1020.3 |
| 20260508121543 | 58 | 324 | 4.3 | 10.4 | 0.00 | 0.00 | 0.00 | 63 | 1020.3 |
| 20260508120058 | 59 | 283 | 5.2 | 10.4 | 0.00 | 0.00 | 0.00 | 63 | 1020.3 |
| 20260508114553 | 58 | 302 | 4.3 | 10.4 | 0.00 | 0.00 | 0.00 | 63 | 1020.3 |
| 20260508113039 | 59 | 291 | 4.3 | 10.4 | 0.00 | 0.00 | 0.00 | 62 | 1020.0 |
| 20260508111541 | 59 | 319 | 7.0 | 11.3 | 0.00 | 0.00 | 0.00 | 62 | 1019.9 |
| 20260508110036 | 59 | 311 | 7.0 | 12.2 | 0.00 | 0.00 | 0.00 | 62 | 1019.6 |
| 20260508104538 | 59 | 284 | 5.2 | 10.4 | 0.00 | 0.00 | 0.00 | 62 | 1019.5 |
| 20260508103051 | 59 | 305 | 5.2 | 12.2 | 0.00 | 0.00 | 0.00 | 61 | 1019.3 |
| 20260508101532 | 59 | 283 | 5.2 | 11.3 | 0.00 | 0.00 | 0.00 | 60 | 1019.1 |
| 20260508100031 | 59 | 328 | 6.1 | 11.3 | 0.00 | 0.00 | 0.00 | 59 | 1018.9 |
| 20260508094530 | 60 | 290 | 6.1 | 13.9 | 0.00 | 0.00 | 0.00 | 59 | 1018.8 |
| 20260508093037 | 60 | 304 | 6.1 | 13.9 | 0.00 | 0.00 | 0.00 | 58 | 1018.6 |
| 20260508091532 | 60 | 337 | 8.7 | 17.4 | 0.00 | 0.00 | 0.00 | 57 | 1018.5 |